Location: Unspecified
(40.4667°N, 0.0000°E)
Time: 23:46:52
(UTC+00:00)

ISS - Pass Details

Date: 26 May 2019
Orbit: 407 x 418 km, 51.6° (Epoch: 20 June)

Event Time Altitude Azimuth Distance (km) Brightness Sun altitude
Rises 20:31:04 0° 298° (WNW) 2,351 1.8 -11.9°
Reaches altitude 10° 20:34:11 10° 330° (NNW) 1,493 0.3 -12.4°
Maximum altitude 20:35:41 12° 357° (N) 1,355 -0.5 -12.6°
Drops below altitude 10° 20:37:12 10° 23° (NNE) 1,496 -0.7 -12.8°
Sets 20:40:19 0° 55° (NE) 2,363 -0.1 -13.2°
